Newton, KS

1:57 PM CDT on September 18, 2019 (GMT -0500)
Newton City County

Weather History for KEWK - July, 2019

Change the Weather History Date:

Friday, July 19, 2019

  Actual Average Record
Temperature  
Mean Temperature 88 °F -  
Max Temperature 99 °F 89 °F 105 °F (2006)
Min Temperature 78 °F 67 °F 57 °F (2014)
Cooling Degree Days 24    
Growing Degree Days 38 (Base 50)    
Moisture  
Dew Point 69 °F    
Average Humidity 56    
Maximum Humidity 74    
Minimum Humidity 39    
Precipitation  
Precipitation 0.00 in - - ()
Sea Level Pressure  
Sea Level Pressure 29.78 in    
Wind  
Wind Speed 20 mph (South)    
Max Wind Speed 26 mph    
Max Gust Speed 33 mph    
Visibility 10 miles    
Events      
Averages and records for this station are not official NWS values.
T = Trace of Precipitation, MM = Missing Value Source: NWS Daily Summary

Daily Weather History Graph

Daily Weather History Graph

Search for Another Location

Airport or City:

Astronomy

Jul. 19, 2019 Rise Set
Actual Time 6:21 AM CDT 8:49 PM CDT
Civil Twilight 5:50 AM CDT 9:19 PM CDT
Nautical Twilight 5:13 AM CDT 9:56 PM CDT
Astronomical Twilight 4:31 AM CDT 10:38 PM CDT
Moon 10:50 PM CDT (7/19) 8:47 AM CDT (7/19)
Length of Visible Light 15h 28m
Length of Day
14h 27m
Waning Gibbous, 93% of the Moon is Illuminated
Jul 19
Waning Gibbous
Jul 24
Last Quarter
Jul 31
New
Aug 7
First Quarter
Aug 15
Full

Hourly Weather History & Observations

Time (CDT) Temp. Heat Index Dew Point Humidity Pressure Visibility Wind Dir Wind Speed Gust Speed Precip Events Conditions
12:56 AM 82.0 °F 85.5 °F 69.1 °F 65% 29.79 in 10.0 mi South 17.3 mph - N/A   Unknown
1:56 AM 82.0 °F 85.5 °F 69.1 °F 65% 29.78 in 10.0 mi South 20.7 mph 27.6 mph N/A   Clear
2:24 AM 82.4 °F 85.4 °F 68.0 °F 62% 29.85 in 10.0 mi South 20.7 mph 26.5 mph N/A   Partly Cloudy
2:56 AM 81.0 °F 83.8 °F 68.0 °F 65% 29.78 in 10.0 mi South 19.6 mph - N/A   Unknown
3:56 AM 80.1 °F 82.7 °F 68.0 °F 67% 29.78 in 10.0 mi South 19.6 mph - N/A   Unknown
4:56 AM 79.0 °F - 68.0 °F 69% 29.78 in 10.0 mi South 18.4 mph - N/A   Unknown
5:56 AM 78.1 °F - 68.0 °F 71% 29.77 in 10.0 mi South 18.4 mph 25.3 mph N/A   Clear
6:56 AM 78.1 °F - 69.1 °F 74% 29.78 in 10.0 mi South 17.3 mph - N/A   Clear
7:56 AM 80.1 °F 82.9 °F 69.1 °F 69% 29.78 in 10.0 mi South 23.0 mph 27.6 mph N/A   Unknown
8:56 AM 82.9 °F 87.0 °F 70.0 °F 65% 29.78 in 10.0 mi South 23.0 mph - N/A   Partly Cloudy
9:56 AM 86.0 °F 90.7 °F 70.0 °F 59% 29.79 in 10.0 mi SSW 18.4 mph 27.6 mph N/A   Clear
10:56 AM 89.1 °F 94.1 °F 70.0 °F 53% 29.79 in 10.0 mi SSW 20.7 mph - N/A   Unknown
11:56 AM 93.0 °F 99.0 °F 70.0 °F 47% 29.79 in 10.0 mi SSW 18.4 mph 25.3 mph N/A   Unknown
12:42 PM 93.2 °F 98.8 °F 69.8 °F 46% 29.85 in 10.0 mi SSW 21.9 mph 27.6 mph N/A   Partly Cloudy
12:56 PM 95.0 °F 102.5 °F 71.1 °F 46% 29.78 in 10.0 mi SSW 21.9 mph - N/A   Clear
1:56 PM 97.0 °F 104.8 °F 71.1 °F 43% 29.77 in 10.0 mi South 19.6 mph 26.5 mph N/A   Clear
2:56 PM 98.1 °F 107.2 °F 72.0 °F 43% 29.75 in 10.0 mi SSW 23.0 mph 29.9 mph N/A   Unknown
3:56 PM 99.0 °F 108.5 °F 72.0 °F 42% 29.75 in 10.0 mi South 24.2 mph 29.9 mph N/A   Unknown
4:56 PM 99.0 °F 108.5 °F 72.0 °F 42% 29.74 in 10.0 mi South 26.5 mph 29.9 mph N/A   Clear
5:56 PM 98.1 °F 104.4 °F 69.1 °F 39% 29.73 in 10.0 mi South 23.0 mph 33.4 mph N/A   Clear
6:56 PM 96.1 °F 101.0 °F 68.0 °F 40% 29.73 in 10.0 mi South 23.0 mph 31.1 mph N/A   Clear
7:56 PM 91.9 °F 96.9 °F 69.1 °F 47% 29.74 in 10.0 mi South 18.4 mph 26.5 mph N/A   Unknown
8:56 PM 89.1 °F 93.7 °F 69.1 °F 52% 29.75 in 10.0 mi South 16.1 mph 21.9 mph N/A   Unknown
9:56 PM 87.1 °F 90.6 °F 68.0 °F 53% 29.77 in 10.0 mi South 16.1 mph 24.2 mph N/A   Unknown
10:49 PM 84.2 °F 87.3 °F 68.0 °F 58% 29.85 in 10.0 mi South 17.3 mph - N/A   Partly Cloudy
10:56 PM 84.9 °F 88.2 °F 68.0 °F 57% 29.79 in 10.0 mi South 17.3 mph - N/A   Partly Cloudy
11:56 PM 82.9 °F 85.8 °F 68.0 °F 60% 29.79 in 10.0 mi SSE 12.7 mph - N/A   Unknown